TimeEST,TemperatureF,Dew PointF,Humidity,Sea Level PressureIn,VisibilityMPH,Wind Direction,Wind SpeedMPH,Gust SpeedMPH,PrecipitationIn,Events,Conditions,WindDirDegrees,DateUTC
12:15 AM,49.3,37.4,64,30.06,10.0,NW,3.5,-,N/A,,Clear,310,2013-01-21 05:15:00
12:35 AM,49.3,36.9,62,30.06,10.0,WNW,3.5,-,N/A,,Clear,300,2013-01-21 05:35:00
12:55 AM,49.1,38.8,68,30.06,10.0,Calm,Calm,-,N/A,,Clear,0,2013-01-21 05:55:00
1:15 AM,46.4,38.1,73,30.06,10.0,Calm,Calm,-,N/A,,Clear,0,2013-01-21 06:15:00
1:35 AM,43.9,37.4,78,30.06,10.0,Calm,Calm,-,N/A,,Clear,0,2013-01-21 06:35:00
1:55 AM,46.2,37.0,70,30.07,10.0,Calm,Calm,-,N/A,,Clear,0,2013-01-21 06:55:00
2:15 AM,45.5,36.5,71,30.07,10.0,North,4.6,-,N/A,,Clear,350,2013-01-21 07:15:00
2:35 AM,45.7,37.0,72,30.06,10.0,North,4.6,-,N/A,,Clear,350,2013-01-21 07:35:00
2:55 AM,44.4,36.9,75,30.06,10.0,North,4.6,-,N/A,,Clear,10,2013-01-21 07:55:00
3:15 AM,42.6,36.1,78,30.06,10.0,North,5.8,-,N/A,,Clear,10,2013-01-21 08:15:00
3:35 AM,43.0,36.7,78,30.06,10.0,North,6.9,-,N/A,,Clear,10,2013-01-21 08:35:00
3:55 AM,42.1,37.4,83,30.06,10.0,NNE,5.8,-,N/A,,Clear,20,2013-01-21 08:55:00
4:15 AM,43.7,38.7,82,30.06,10.0,NNE,5.8,-,N/A,,Clear,30,2013-01-21 09:15:00
4:35 AM,43.3,39.4,86,30.06,10.0,NNE,5.8,-,N/A,,Clear,30,2013-01-21 09:35:00
4:55 AM,45.0,38.7,79,30.06,10.0,NE,5.8,-,N/A,,Clear,40,2013-01-21 09:55:00
5:15 AM,45.7,38.3,75,30.06,10.0,NE,8.1,-,N/A,,Clear,50,2013-01-21 10:15:00
5:35 AM,46.2,37.4,71,30.06,10.0,NE,6.9,-,N/A,,Clear,50,2013-01-21 10:35:00
5:55 AM,45.7,37.4,73,30.07,10.0,NE,8.1,-,N/A,,Clear,50,2013-01-21 10:55:00
6:15 AM,46.0,36.9,70,30.07,10.0,NE,9.2,-,N/A,,Clear,40,2013-01-21 11:15:00
6:35 AM,45.9,36.0,68,30.07,10.0,NE,8.1,-,N/A,,Clear,40,2013-01-21 11:35:00
6:55 AM,45.5,35.6,68,30.07,10.0,NE,6.9,-,N/A,,Clear,40,2013-01-21 11:55:00
7:15 AM,44.8,35.8,71,30.06,10.0,NE,6.9,-,N/A,,Clear,50,2013-01-21 12:15:00
7:35 AM,44.8,37.0,74,30.06,10.0,ENE,5.8,-,N/A,,Clear,60,2013-01-21 12:35:00
7:55 AM,46.4,39.2,76,30.06,10.0,ENE,5.8,-,N/A,,Clear,60,2013-01-21 12:55:00
8:15 AM,48.7,40.6,74,30.07,10.0,ENE,5.8,-,N/A,,Clear,60,2013-01-21 13:15:00
8:35 AM,50.4,41.5,72,30.07,10.0,ENE,5.8,-,N/A,,Clear,70,2013-01-21 13:35:00
8:55 AM,51.6,41.4,68,30.08,10.0,East,6.9,-,N/A,,Clear,80,2013-01-21 13:55:00
9:35 AM,53.1,42.1,66,30.08,10.0,East,10.4,-,N/A,,Clear,90,2013-01-21 14:35:00
9:55 AM,53.6,41.7,64,30.08,10.0,East,9.2,-,N/A,,Clear,100,2013-01-21 14:55:00
10:15 AM,54.5,40.6,60,30.07,10.0,East,10.4,-,N/A,,Clear,90,2013-01-21 15:15:00
10:35 AM,-9999,-9999,N/A,-9999,-9999.0,North,-9999.0,-,N/A,,Unknown,0,2013-01-21 15:35:00
10:55 AM,55.0,41.9,61,30.06,10.0,East,10.4,-,N/A,,Clear,100,2013-01-21 15:55:00
11:15 AM,55.4,41.0,58,30.04,10.0,East,9.2,-,N/A,,Clear,80,2013-01-21 16:15:00
11:35 AM,56.3,40.5,55,30.03,10.0,East,9.2,-,N/A,,Clear,80,2013-01-21 16:35:00
11:55 AM,56.1,39.6,54,30.02,10.0,East,8.1,-,N/A,,Clear,80,2013-01-21 16:55:00
12:15 PM,56.5,40.1,54,30.00,10.0,East,8.1,-,N/A,,Clear,90,2013-01-21 17:15:00
12:35 PM,57.2,40.6,54,29.98,10.0,ESE,8.1,-,N/A,,Clear,120,2013-01-21 17:35:00
12:55 PM,56.7,41.0,56,29.97,10.0,SE,9.2,-,N/A,,Clear,140,2013-01-21 17:55:00
1:15 PM,57.0,42.4,58,29.96,10.0,SE,8.1,-,N/A,,Clear,130,2013-01-21 18:15:00
1:35 PM,59.0,42.8,55,29.94,10.0,SSE,6.9,-,N/A,,Clear,150,2013-01-21 18:35:00
1:55 PM,59.4,42.8,54,29.94,10.0,South,8.1,-,N/A,,Clear,180,2013-01-21 18:55:00
2:15 PM,58.8,41.9,53,29.93,10.0,South,8.1,-,N/A,,Clear,170,2013-01-21 19:15:00
2:35 PM,58.3,41.4,53,29.92,10.0,South,10.4,16.1,N/A,,Clear,180,2013-01-21 19:35:00
2:55 PM,57.7,40.5,53,29.91,10.0,South,11.5,-,N/A,,Clear,170,2013-01-21 19:55:00
3:15 PM,57.7,40.8,53,29.90,10.0,South,10.4,-,N/A,,Clear,180,2013-01-21 20:15:00
3:35 PM,57.2,39.7,52,29.89,10.0,South,9.2,-,N/A,,Clear,170,2013-01-21 20:35:00
3:55 PM,55.2,41.7,60,29.88,10.0,South,11.5,-,N/A,,Clear,180,2013-01-21 20:55:00
4:15 PM,54.7,42.8,64,29.88,10.0,South,10.4,-,N/A,,Clear,180,2013-01-21 21:15:00
4:35 PM,53.8,43.3,68,29.87,10.0,South,10.4,-,N/A,,Clear,180,2013-01-21 21:35:00
4:55 PM,53.1,44.1,71,29.86,10.0,South,10.4,-,N/A,,Clear,180,2013-01-21 21:55:00
5:15 PM,52.2,44.8,76,29.86,10.0,South,9.2,-,N/A,,Clear,180,2013-01-21 22:15:00
5:35 PM,51.3,45.5,81,29.86,10.0,South,8.1,-,N/A,,Clear,180,2013-01-21 22:35:00
6:15 PM,51.4,45.9,81,29.85,10.0,SSW,8.1,-,N/A,,Clear,200,2013-01-21 23:15:00
6:35 PM,50.9,46.2,84,29.86,10.0,SSW,8.1,-,N/A,,Clear,210,2013-01-21 23:35:00
6:55 PM,50.4,45.5,83,29.86,10.0,SSW,6.9,-,N/A,,Clear,210,2013-01-21 23:55:00
7:15 PM,50.4,45.5,83,29.85,10.0,SSW,10.4,-,N/A,,Clear,210,2013-01-22 00:15:00
7:55 PM,50.2,45.9,85,29.86,10.0,SW,8.1,-,N/A,,Clear,230,2013-01-22 00:55:00
8:15 PM,50.2,45.5,84,29.86,10.0,SW,5.8,-,N/A,,Clear,230,2013-01-22 01:15:00
8:35 PM,50.2,45.5,84,29.86,10.0,SW,4.6,-,N/A,,Clear,230,2013-01-22 01:35:00
8:55 PM,51.1,45.1,80,29.86,10.0,WSW,8.1,-,N/A,,Clear,240,2013-01-22 01:55:00
9:15 PM,51.3,45.0,79,29.86,10.0,WSW,8.1,-,N/A,,Clear,240,2013-01-22 02:15:00
9:35 PM,51.3,44.8,78,29.86,10.0,WSW,9.2,-,N/A,,Clear,240,2013-01-22 02:35:00
9:55 PM,52.3,43.2,71,29.86,10.0,WSW,10.4,-,N/A,,Clear,240,2013-01-22 02:55:00
10:35 PM,53.6,41.0,62,29.87,10.0,West,12.7,18.4,N/A,,Clear,260,2013-01-22 03:35:00
10:55 PM,53.6,39.7,59,29.87,10.0,West,11.5,17.3,N/A,,Clear,260,2013-01-22 03:55:00
11:15 PM,53.6,38.5,57,29.88,10.0,WNW,13.8,20.7,N/A,,Clear,290,2013-01-22 04:15:00
11:35 PM,51.6,39.0,62,29.89,10.0,WNW,11.5,17.3,N/A,,Clear,300,2013-01-22 04:35:00
11:55 PM,50.9,36.3,57,29.90,10.0,NW,9.2,18.4,N/A,,Clear,310,2013-01-22 04:55:00